Weather History for Logan, UT

Change the Weather History Date:

Sunday, September 29, 2013

  Actual Average Record
Temperature  
Mean Temperature 52 °F -  
Max Temperature 71 °F 72 °F 88 °F (1957)
Min Temperature 36 °F 38 °F 23 °F (1988)
Degree Days  
Heating Degree Days 12    
Growing Degree Days 2 (Base 50)    
Moisture  
Dew Point 32 °F    
Average Humidity 45    
Maximum Humidity 86    
Minimum Humidity 21    
Precipitation  
Precipitation 0.00 in - - ()
Sea Level Pressure  
Sea Level Pressure 29.93 in    
Wind  
Wind Speed 6 mph (South)    
Max Wind Speed 23 mph    
Max Gust Speed 29 mph    
Visibility 10 miles    
Events      
Averages and records for this station are not official NWS values.
T = Trace of Precipitation, MM = Missing Value Source: NWS Daily Summary

Daily Weather History Graph

Daily Weather History Graph

Search for Another Location

Airport:

Trip Planner

Search our weather history database for the weather conditions in past years. The results will help you decide how hot, cold, wet, or windy it might be!

Date:

Astronomy

Sep. 29, 2013 Rise Set
Actual Time 7:22 AM MDT 7:11 PM MDT
Civil Twilight 6:54 AM MDT 7:39 PM MDT
Nautical Twilight 6:22 AM MDT 8:11 PM MDT
Astronomical Twilight 5:49 AM MDT 8:44 PM MDT
Moon 2:03 AM MDT (9/29) 4:13 PM MDT (9/29)
Length of Visible Light 12h 44m
Length of Day
11h 49m
Waning Crescent, 26% of the Moon is Illuminated
Sep 29
Waning Crescent
Oct 4
New
Oct 11
First Quarter
Oct 18
Full
Oct 26
Last Quarter

Hourly Weather History & Observations

Time (MDT) Temp. Windchill Dew Point Humidity Pressure Visibility Wind Dir Wind Speed Gust Speed Precip Events Conditions
12:51 AM 42.1 °F - 35.1 °F 76% 30.06 in 10.0 mi Calm Calm - N/A   Clear
1:51 AM 43.0 °F 38.2 °F 34.0 °F 71% 30.03 in 10.0 mi SW 8.1 mph - N/A   Clear
2:51 AM 39.0 °F - 34.0 °F 82% 30.02 in 10.0 mi Calm Calm - N/A   Clear
3:51 AM 39.9 °F - 33.1 °F 77% 30.00 in 10.0 mi Calm Calm - N/A   Clear
4:51 AM 36.0 °F 32.1 °F 32.0 °F 86% 30.01 in 10.0 mi North 4.6 mph - N/A   Clear
5:51 AM 37.0 °F - 30.9 °F 79% 29.98 in 10.0 mi Calm Calm - N/A   Clear
6:51 AM 37.0 °F 33.3 °F 30.9 °F 79% 29.99 in 10.0 mi NE 4.6 mph - N/A   Clear
7:51 AM 46.0 °F 41.9 °F 36.0 °F 68% 29.98 in 10.0 mi ENE 8.1 mph - N/A   Mostly Cloudy
8:51 AM 53.1 °F - 35.1 °F 50% 29.98 in 10.0 mi NE 5.8 mph - N/A   Scattered Clouds
9:51 AM 55.9 °F - 35.1 °F 45% 29.99 in 10.0 mi Variable 3.5 mph - N/A   Mostly Cloudy
10:51 AM 64.0 °F - 28.9 °F 27% 29.97 in 10.0 mi SW 10.4 mph - N/A   Mostly Cloudy
11:51 AM 64.0 °F - 30.0 °F 28% 29.95 in 10.0 mi Calm Calm - N/A   Partly Cloudy
12:51 PM 66.0 °F - 27.0 °F 23% 29.93 in 10.0 mi South 9.2 mph - N/A   Overcast
1:51 PM 64.9 °F - 28.9 °F 26% 29.91 in 10.0 mi South 13.8 mph - N/A   Mostly Cloudy
2:51 PM 66.0 °F - 28.9 °F 25% 29.94 in 10.0 mi SW 13.8 mph 24.2 mph N/A   Overcast
3:51 PM 64.9 °F - 33.1 °F 31% 29.93 in 10.0 mi South 8.1 mph - N/A   Overcast
4:51 PM 66.0 °F - 30.9 °F 27% 29.91 in 10.0 mi South 13.8 mph 24.2 mph N/A   Overcast
5:51 PM 66.9 °F - 30.9 °F 26% 29.87 in 10.0 mi South 13.8 mph - N/A   Overcast
6:51 PM 66.0 °F - 30.9 °F 27% 29.86 in 10.0 mi SSE 11.5 mph - N/A   Overcast
7:51 PM 64.9 °F - 30.9 °F 28% 29.82 in 10.0 mi SSE 10.4 mph - N/A   Overcast
8:51 PM 66.0 °F - 30.0 °F 26% 29.82 in 10.0 mi South 11.5 mph - N/A   Overcast
9:51 PM 66.0 °F - 30.0 °F 26% 29.82 in 10.0 mi South 9.2 mph - N/A   Overcast
10:33 PM 69.8 °F - 28.4 °F 21% 29.94 in 10.0 mi WSW 23.0 mph 28.8 mph N/A   Overcast
10:51 PM 69.1 °F - 33.1 °F 26% 29.83 in 10.0 mi WSW 18.4 mph 27.6 mph N/A   Overcast
11:51 PM 64.9 °F - 37.9 °F 37% 29.83 in 10.0 mi South 11.5 mph - N/A   Overcast